Amarillo, TX

3:59 PM CDT on July 22, 2017 (GMT -0500)
Amarillo International

Weather History for KAMA - January, 2014

Change the Weather History Date:

Thursday, January 9, 2014

  Actual Average Record
Temperature  
Mean Temperature 38 °F 37 °F  
Max Temperature 60 °F 50 °F 80 °F (1909)
Min Temperature 16 °F 23 °F -1 °F (1977)
Degree Days  
Heating Degree Days 27 28  
Month to date heating degree days 288 258  
Since 1 July heating degree days 2029 1975  
Cooling Degree Days 0 0  
Month to date cooling degree days 0 0  
Year to date cooling degree days 0 0  
Moisture  
Dew Point 21 °F    
Average Humidity 56    
Maximum Humidity 92    
Minimum Humidity 19    
Precipitation  
Precipitation 0.00 in 0.02 in 0.76 in (1991)
Month to date precipitation 0.03 0.18  
Year to date precipitation 0.03 0.18  
Snow  
Snow 0.00 in 0.10 in 5.00 in (1991)
Month to date snowfall 0.9 1.0  
Since 1 July snowfall 7.4 7.4  
Snow Depth 0.00 in    
Sea Level Pressure  
Sea Level Pressure 30.04 in    
Wind  
Wind Speed 12 mph (SSW)    
Max Wind Speed 25 mph    
Max Gust Speed 29 mph    
Visibility 8 miles    
Events      
T = Trace of Precipitation, MM = Missing Value Source: NWS Daily Summary

Daily Weather History Graph

Daily Weather History Graph

Search for Another Location

Airport or City:

Trip Planner

Search our weather history database for the weather conditions in past years. The results will help you decide how hot, cold, wet, or windy it might be!

Date:

Astronomy

Jan. 09, 2014 Rise Set
Actual Time 7:55 AM CST 5:52 PM CST
Civil Twilight 7:28 AM CST 6:20 PM CST
Nautical Twilight 6:56 AM CST 6:51 PM CST
Astronomical Twilight 6:25 AM CST 7:22 PM CST
Moon 1:15 PM CST (1/9) 2:10 AM CST (1/9)
Length of Visible Light 10h 52m
Length of Day
9h 56m
Waxing Gibbous, 66% of the Moon is Illuminated
Jan 9
Waxing Gibbous
Jan 15
Full
Jan 23
Last Quarter
Jan 30
New
Feb 6
First Quarter

Hourly Weather History & Observations

Time (CST) Temp. Windchill Dew Point Humidity Pressure Visibility Wind Dir Wind Speed Gust Speed Precip Events Conditions
12:53 AM 21.9 °F 15.7 °F 19.0 °F 89% 30.17 in 7.0 mi North 4.6 mph - N/A   Scattered Clouds
1:53 AM 19.9 °F 13.4 °F 17.1 °F 89% 30.18 in 7.0 mi NW 4.6 mph - N/A   Clear
2:53 AM 21.0 °F 13.4 °F 19.0 °F 92% 30.18 in 7.0 mi WNW 5.8 mph - N/A   Clear
3:53 AM 19.9 °F - 18.0 °F 92% 30.16 in 6.0 mi Calm Calm - N/A   Clear
4:53 AM 19.9 °F - 18.0 °F 92% 30.15 in 5.0 mi Calm Calm - N/A   Clear
5:53 AM 21.0 °F 16.2 °F 19.0 °F 92% 30.15 in 6.0 mi SW 3.5 mph - N/A   Clear
6:53 AM 17.1 °F 6.6 °F 14.0 °F 88% 30.17 in 6.0 mi SSW 8.1 mph - N/A   Clear
7:53 AM 16.0 °F 7.4 °F 12.9 °F 88% 30.17 in 6.0 mi SSW 5.8 mph - N/A   Clear
8:53 AM 21.0 °F 13.4 °F 19.0 °F 92% 30.16 in 4.0 mi SSW 5.8 mph - N/A   Clear
9:53 AM 27.0 °F 16.1 °F 24.1 °F 89% 30.15 in 6.0 mi SSW 12.7 mph - N/A   Clear
10:53 AM 35.1 °F 25.2 °F 24.1 °F 64% 30.12 in 10.0 mi SSW 16.1 mph - N/A   Clear
11:53 AM 42.1 °F 34.2 °F 24.1 °F 49% 30.06 in 10.0 mi SSW 16.1 mph 23.0 mph N/A   Clear
12:53 PM 48.0 °F - 24.1 °F 39% 29.98 in 10.0 mi SSW 15.0 mph - N/A   Clear
1:53 PM 55.9 °F - 23.0 °F 28% 29.92 in 10.0 mi SSW 16.1 mph 24.2 mph N/A   Clear
2:53 PM 60.1 °F - 19.0 °F 20% 29.86 in 10.0 mi SSW 19.6 mph 27.6 mph N/A   Clear
3:53 PM 57.9 °F - 17.1 °F 20% 29.85 in 10.0 mi SSW 20.7 mph - N/A   Clear
5:53 PM 53.1 °F - 21.9 °F 30% 29.87 in 10.0 mi South 15.0 mph - N/A   Clear
6:53 PM 43.0 °F 35.7 °F 25.0 °F 49% 29.90 in 10.0 mi SSE 15.0 mph - N/A   Clear
7:53 PM 39.9 °F 32.5 °F 26.1 °F 58% 29.91 in 10.0 mi SSE 12.7 mph - N/A   Clear
8:53 PM 44.1 °F 36.8 °F 24.1 °F 45% 29.88 in 10.0 mi South 16.1 mph - N/A   Clear
9:53 PM 43.0 °F 34.8 °F 23.0 °F 45% 29.86 in 10.0 mi South 18.4 mph - N/A   Clear
10:53 PM 43.0 °F 36.0 °F 24.1 °F 47% 29.85 in 10.0 mi South 13.8 mph - N/A   Clear